OE3EMC-13 Weather Reports


time (UTC)temp
F
wind
direction
speed
knots
gust
knots
rain 1hr
in
rain 24hr
in
rain mn
in
humidity
%
barometer
mb
20260505110313 82 157 3.5 1.7 0.00 0.00 0.00 29 1100.0
20260505101312 79 135 1.7 6.1 0.00 0.00 0.00 34 1100.0
20260505100313 79 135 1.7 6.1 0.00 0.00 0.00 34 1100.0
20260505095311 78 90 2.6 4.3 0.00 0.00 0.00 32 1100.0
20260505094312 78 90 2.6 4.3 0.00 0.00 0.00 32 1100.0
20260505093311 76 202 1.7 5.2 0.00 0.00 0.00 35 1100.0
20260505092311 76 202 1.7 5.2 0.00 0.00 0.00 35 1100.0
20260505091311 75 135 2.6 6.1 0.00 0.00 0.00 37 1100.0
20260505090311 75 135 2.6 6.1 0.00 0.00 0.00 37 1100.0
20260505085310 73 202 1.7 5.2 0.00 0.00 0.00 36 1100.0
20260505084311 73 202 1.7 5.2 0.00 0.00 0.00 36 1100.0
20260505083310 70 202 1.7 3.5 0.00 0.00 0.00 40 1100.0
20260505082310 70 202 1.7 3.5 0.00 0.00 0.00 40 1100.0
20260505081311 67 360 1.7 2.6 0.00 0.00 0.00 46 1100.0
20260505080311 67 360 1.7 2.6 0.00 0.00 0.00 46 1100.0
20260505075310 66 360 0.9 1.7 0.00 0.00 0.00 51 1100.0
20260505074309 66 360 0.9 1.7 0.00 0.00 0.00 51 1100.0
20260505073309 64 315 1.7 5.2 0.00 0.00 0.00 53 1100.0
20260505072309 64 315 1.7 5.2 0.00 0.00 0.00 53 1100.0
20260505071310 63 90 1.7 3.5 0.00 0.00 0.00 56 1100.0
20260505070314 63 90 1.7 3.5 0.00 0.00 0.00 56 1100.0
20260505065315 62 67 1.7 2.6 0.00 0.00 0.00 60 1100.0
20260505064315 62 67 1.7 2.6 0.00 0.00 0.00 60 1100.0
20260505063315 61 360 0.9 1.7 0.00 0.00 0.00 60 1100.0
20260505062313 61 360 0.9 1.7 0.00 0.00 0.00 60 1100.0
20260505061314 59 337 1.7 3.5 0.00 0.00 0.00 64 1100.0
20260505060314 59 337 1.7 3.5 0.00 0.00 0.00 64 1100.0
20260505055313 55 360 0.0 0.0 0.00 0.00 0.00 75 1100.0
20260505054314 55 360 0.0 0.0 0.00 0.00 0.00 75 1100.0
20260505053313 51 90 0.0 0.0 0.00 0.00 0.00 83 1100.0
20260505052312 51 90 0.0 0.0 0.00 0.00 0.00 83 1100.0
20260505051312 48 337 0.0 0.0 0.00 0.00 0.00 84 1100.0
20260505050312 48 337 0.0 0.0 0.00 0.00 0.00 84 1100.0
20260505041311 45 67 0.0 0.9 0.00 0.00 0.00 81 1100.0
20260505040311 45 67 0.0 0.9 0.00 0.00 0.00 81 1100.0
20260505035312 46 22 0.0 0.0 0.00 0.00 0.00 80 1100.0
20260505034312 46 22 0.0 0.0 0.00 0.00 0.00 80 1100.0
20260505033311 46 45 0.0 0.0 0.00 0.00 0.00 79 1100.0
20260505032312 46 45 0.0 0.0 0.00 0.00 0.00 79 1100.0
20260505031312 47 337 0.0 0.0 0.00 0.00 0.00 79 1100.0
20260505030311 47 337 0.0 0.0 0.00 0.00 0.00 79 1100.0
20260505025310 48 45 0.0 0.9 0.00 0.00 0.00 77 1100.0
20260505024310 48 45 0.0 0.9 0.00 0.00 0.00 77 1100.0
20260505023310 49 22 0.9 0.9 0.00 0.00 0.00 78 1100.0
20260505022310 49 22 0.9 0.9 0.00 0.00 0.00 78 1100.0
20260505021311 49 22 0.9 0.0 0.00 0.00 0.00 76 1100.0
20260505020309 49 22 0.9 0.0 0.00 0.00 0.00 76 1100.0
20260505015311 50 67 0.9 0.9 0.00 0.00 0.00 77 1100.0
20260505014311 50 67 0.9 0.9 0.00 0.00 0.00 77 1100.0
20260505013310 51 360 0.0 0.0 0.00 0.00 0.00 75 1100.0
20260505012314 51 360 0.0 0.0 0.00 0.00 0.00 75 1100.0
20260505011315 51 67 0.0 0.0 0.00 0.00 0.00 74 1100.0
20260505010314 51 67 0.0 0.0 0.00 0.00 0.00 74 1100.0
20260505005314 51 180 0.9 0.0 0.00 0.00 0.00 74 1100.0
20260505004313 51 180 0.9 0.0 0.00 0.00 0.00 74 1100.0
20260505003313 52 90 0.0 0.0 0.00 0.00 0.00 72 1100.0
20260505002315 52 90 0.0 0.0 0.00 0.00 0.00 72 1100.0
20260505001313 52 90 0.9 0.0 0.00 0.00 0.00 72 1100.0
20260505000313 52 90 0.9 0.0 0.00 0.00 0.00 72 1100.0
20260504235313 53 90 0.9 2.6 0.00 0.00 0.00 71 1100.0
20260504234313 53 90 0.9 2.6 0.00 0.00 0.00 71 1100.0
20260504233313 51 67 0.0 0.0 0.00 0.00 0.00 70 1100.0
20260504232314 51 67 0.0 0.0 0.00 0.00 0.00 70 1100.0
20260504231312 51 112 0.0 1.7 0.00 0.00 0.00 68 1100.0
20260504230312 51 112 0.0 1.7 0.00 0.00 0.00 68 1100.0
20260504225315 51 45 0.0 0.9 0.00 0.00 0.00 67 1100.0
20260504224312 51 45 0.0 0.9 0.00 0.00 0.00 67 1100.0
20260504223311 51 67 0.9 0.9 0.00 0.00 0.00 66 1100.0
20260504222312 51 67 0.9 0.9 0.00 0.00 0.00 66 1100.0
20260504221311 52 67 0.9 0.9 0.00 0.00 0.00 65 1100.0
20260504220311 52 67 0.9 0.9 0.00 0.00 0.00 65 1100.0
20260504215311 53 90 0.9 0.0 0.00 0.00 0.00 64 1100.0
20260504214312 53 90 0.9 0.0 0.00 0.00 0.00 64 1100.0
20260504213311 53 112 0.9 0.0 0.00 0.00 0.00 62 1100.0
20260504212311 53 112 0.9 0.0 0.00 0.00 0.00 62 1100.0
20260504211311 54 45 0.0 0.0 0.00 0.00 0.00 60 1100.0
20260504210311 54 45 0.0 0.0 0.00 0.00 0.00 60 1100.0
20260504205311 55 67 0.9 0.9 0.00 0.00 0.00 60 1100.0
20260504204310 55 67 0.9 0.9 0.00 0.00 0.00 60 1100.0
20260504203311 57 90 0.0 0.0 0.00 0.00 0.00 54 1100.0
20260504202311 57 90 0.0 0.0 0.00 0.00 0.00 54 1100.0
20260504201310 58 337 0.9 1.7 0.00 0.00 0.00 52 1100.0
20260504200309 58 337 0.9 1.7 0.00 0.00 0.00 52 1100.0
20260504195309 59 135 0.0 0.0 0.00 0.00 0.00 52 1100.0
20260504194311 59 135 0.0 0.0 0.00 0.00 0.00 52 1100.0
20260504193309 59 337 0.0 0.0 0.00 0.00 0.00 51 1100.0
20260504192314 59 337 0.0 0.0 0.00 0.00 0.00 51 1100.0
20260504191315 60 135 0.9 0.0 0.00 0.00 0.00 50 1100.0
20260504190313 60 135 0.9 0.0 0.00 0.00 0.00 50 1100.0
20260504185314 60 202 0.9 2.6 0.00 0.00 0.00 52 1100.0
20260504184314 60 202 0.9 2.6 0.00 0.00 0.00 52 1100.0
20260504183313 63 90 0.0 0.0 0.00 0.00 0.00 49 1100.0
20260504182313 63 90 0.0 0.0 0.00 0.00 0.00 49 1100.0
20260504181313 65 360 1.7 0.9 0.00 0.00 0.00 48 1100.0
20260504180313 65 360 1.7 0.9 0.00 0.00 0.00 48 1100.0
20260504175312 66 90 0.9 0.0 0.00 0.00 0.00 48 1100.0
20260504174313 66 90 0.9 0.0 0.00 0.00 0.00 48 1100.0
20260504173313 67 202 2.6 2.6 0.00 0.00 0.00 47 1100.0
20260504172313 67 202 2.6 2.6 0.00 0.00 0.00 47 1100.0
20260504171313 70 202 3.5 3.5 0.00 0.00 0.00 45 1100.0
20260504170313 70 202 3.5 3.5 0.00 0.00 0.00 45 1100.0
20260504160313 77 247 4.3 5.2 0.00 0.00 0.00 37 1100.0
20260504150312 75 225 1.7 2.6 0.00 0.00 0.00 38 1100.0
20260504141309 80 180 2.6 1.7 0.00 0.00 0.00 35 1100.0
20260504140310 80 180 2.6 1.7 0.00 0.00 0.00 35 1100.0
20260504130313 71 202 3.5 5.2 0.00 0.00 0.00 42 1100.0
20260504120314 76 202 3.5 3.5 0.00 0.00 0.00 36 1100.0